Location: Camps Bay
(33.9517°S, 18.3844°E)
Time: 13:11:16
(UTC+00:00)

CZ-4C R/B - Pass Details

Date: 18 January 2020
Orbit: 411 x 492 km, 97.6° (Epoch: 16 February)

Event Time Altitude Azimuth Distance (km) Brightness Sun altitude
Rises 02:33:58 0° 173° (S) 2,429 7.3 -14.8°
Reaches altitude 10° 02:36:02 10° 177° (S) 1,541 6.2 -14.5°
Maximum altitude 02:39:16 58° 256° (WSW) 499 2.9 -13.9°
Enters shadow 02:40:58 24° 328° (NNW) 908 3.9 -13.6°
